IWY715 TLPC-TBPB

Flight info

Callsign IWY715
Flight time 0h 28m
Altitude 13000
Route TEDDY DCT
Aircraft AT46/M-SDFGHIRWY/LB1

Departure

Time 2026-04-23 17:02
Airport George F. L. Charles Airport (TLPC)

Arrival

Time 2026-04-23 17:30
Airport Grantley Adams International Airport (TBPB)
Time Latitude Longitude Altitude Speed Heading
2026-04-23 16:54 14.02011 -60.99595 24 ft 0 kts 148°
2026-04-23 16:57 14.02010 -60.99595 24 ft 1 kts 148°
2026-04-23 16:57 14.01999 -60.99586 26 ft 2 kts 128°
2026-04-23 16:57 14.01997 -60.99573 27 ft 2 kts 87°
2026-04-23 16:57 14.01999 -60.99563 24 ft 1 kts 78°
2026-04-23 16:58 14.02002 -60.99545 24 ft 7 kts 86°
2026-04-23 16:58 14.01985 -60.99476 25 ft 12 kts 107°
2026-04-23 16:58 14.01955 -60.99478 23 ft 11 kts 255°
2026-04-23 16:58 14.01926 -60.99594 23 ft 22 kts 256°
2026-04-23 16:59 14.01887 -60.99766 27 ft 26 kts 253°
2026-04-23 16:59 14.01839 -60.99929 28 ft 22 kts 253°
2026-04-23 16:59 14.01804 -61.00070 28 ft 19 kts 269°
2026-04-23 16:59 14.01799 -61.00130 29 ft 3 kts 232°
2026-04-23 17:00 14.01789 -61.00124 29 ft 4 kts 118°
2026-04-23 17:00 14.01791 -61.00100 28 ft 2 kts 75°
2026-04-23 17:01 14.01793 -61.00095 28 ft 11 kts 75°
2026-04-23 17:01 14.01870 -60.99799 28 ft 74 kts 76°
2026-04-23 17:01 14.02066 -60.99081 154 ft 120 kts 71°
2026-04-23 17:02 14.02377 -60.98620 642 ft 125 kts 40°
2026-04-23 17:02 14.03622 -60.98383 1474 ft 144 kts 356°
2026-04-23 17:02 14.04584 -60.98691 2076 ft 145 kts 349°
2026-04-23 17:02 14.05541 -60.98558 2694 ft 139 kts 31°
2026-04-23 17:03 14.06069 -60.97765 3193 ft 143 kts 85°
2026-04-23 17:03 14.05863 -60.96776 3781 ft 143 kts 115°
2026-04-23 17:03 14.05264 -60.95921 4255 ft 152 kts 138°
2026-04-23 17:03 14.04453 -60.95221 4841 ft 153 kts 137°
2026-04-23 17:04 14.03834 -60.94318 5356 ft 158 kts 116°
2026-04-23 17:04 14.03523 -60.93217 5835 ft 163 kts 99°
2026-04-23 17:04 14.03558 -60.92063 6377 ft 164 kts 80°
2026-04-23 17:04 14.03558 -60.90891 6655 ft 173 kts 118°
2026-04-23 17:05 14.02903 -60.89797 6993 ft 183 kts 127°
2026-04-23 17:05 14.02177 -60.88709 7483 ft 186 kts 127°
2026-04-23 17:05 14.01367 -60.87669 7953 ft 187 kts 136°
2026-04-23 17:05 14.00459 -60.86703 8446 ft 188 kts 138°
2026-04-23 17:06 13.99529 -60.85748 8936 ft 190 kts 139°
2026-04-23 17:06 13.98579 -60.84788 9418 ft 191 kts 139°
2026-04-23 17:06 13.97621 -60.83824 9841 ft 193 kts 139°
2026-04-23 17:06 13.96669 -60.82869 10125 ft 194 kts 139°
2026-04-23 17:07 13.95694 -60.81893 10450 ft 194 kts 139°
2026-04-23 17:07 13.94720 -60.80922 10761 ft 196 kts 139°
2026-04-23 17:07 13.93738 -60.79945 11069 ft 196 kts 139°
2026-04-23 17:07 13.92749 -60.78974 11381 ft 197 kts 139°
2026-04-23 17:08 13.91751 -60.77997 11680 ft 198 kts 139°
2026-04-23 17:08 13.90764 -60.77039 11986 ft 198 kts 139°
2026-04-23 17:08 13.89761 -60.76050 12296 ft 200 kts 136°
2026-04-23 17:08 13.88865 -60.74941 12605 ft 202 kts 129°
2026-04-23 17:09 13.88024 -60.73773 12853 ft 206 kts 128°
2026-04-23 17:09 13.87141 -60.72556 12929 ft 218 kts 129°
2026-04-23 17:09 13.86211 -60.71302 12961 ft 230 kts 130°
2026-04-23 17:09 13.85195 -60.69976 12976 ft 242 kts 130°
2026-04-23 17:10 13.84121 -60.68599 12979 ft 251 kts 130°
2026-04-23 17:10 13.83003 -60.67176 12981 ft 259 kts 131°
2026-04-23 17:10 13.81848 -60.65725 12981 ft 264 kts 131°
2026-04-23 17:10 13.80670 -60.64247 12980 ft 269 kts 131°
2026-04-23 17:11 13.79484 -60.62739 12976 ft 272 kts 130°
2026-04-23 17:11 13.78307 -60.61235 12975 ft 274 kts 130°
2026-04-23 17:11 13.77111 -60.59698 12976 ft 275 kts 130°
2026-04-23 17:11 13.75906 -60.58157 12976 ft 277 kts 130°
2026-04-23 17:12 13.74696 -60.56614 12979 ft 277 kts 130°
2026-04-23 17:12 13.73485 -60.55065 12980 ft 278 kts 130°
2026-04-23 17:12 13.72349 -60.53454 12979 ft 279 kts 123°
2026-04-23 17:12 13.71351 -60.51740 12974 ft 279 kts 121°
2026-04-23 17:13 13.70362 -60.50016 12974 ft 280 kts 122°
2026-04-23 17:13 13.69346 -60.48311 12973 ft 280 kts 124°
2026-04-23 17:13 13.68296 -60.46624 12975 ft 280 kts 124°
2026-04-23 17:13 13.67245 -60.44938 12977 ft 280 kts 124°
2026-04-23 17:14 13.66200 -60.43251 12976 ft 280 kts 124°
2026-04-23 17:14 13.65152 -60.41562 12975 ft 280 kts 124°
2026-04-23 17:14 13.64117 -60.39899 12974 ft 280 kts 124°
2026-04-23 17:14 13.63072 -60.38210 12973 ft 280 kts 124°
2026-04-23 17:15 13.62019 -60.36525 12974 ft 280 kts 124°
2026-04-23 17:15 13.60975 -60.34839 12972 ft 280 kts 124°
2026-04-23 17:15 13.59924 -60.33152 12975 ft 280 kts 124°
2026-04-23 17:15 13.58876 -60.31464 12974 ft 280 kts 124°
2026-04-23 17:16 13.57829 -60.29779 12975 ft 280 kts 124°
2026-04-23 17:16 13.56782 -60.28097 12971 ft 280 kts 124°
2026-04-23 17:16 13.55734 -60.26410 12970 ft 280 kts 124°
2026-04-23 17:16 13.54687 -60.24728 12971 ft 279 kts 124°
2026-04-23 17:17 13.53653 -60.23066 12971 ft 279 kts 124°
2026-04-23 17:17 13.52606 -60.21388 12973 ft 279 kts 124°
2026-04-23 17:17 13.51899 -60.20247 12973 ft 279 kts 124°
2026-04-23 17:17 13.50509 -60.18015 12971 ft 279 kts 124°
2026-04-23 17:18 13.48408 -60.14643 12965 ft 280 kts 124°
2026-04-23 17:18 13.47371 -60.12981 12966 ft 280 kts 124°
2026-04-23 17:18 13.46325 -60.11296 12965 ft 279 kts 124°
2026-04-23 17:19 13.45279 -60.09614 12968 ft 280 kts 124°
2026-04-23 17:19 13.44200 -60.07963 12966 ft 275 kts 133°
2026-04-23 17:19 13.42682 -60.06817 12970 ft 270 kts 149°
2026-04-23 17:19 13.41745 -60.05977 12970 ft 270 kts 131°
2026-04-23 17:20 13.40571 -60.04478 13050 ft 269 kts 129°
2026-04-23 17:20 13.38129 -60.01497 12984 ft 275 kts 133°
2026-04-23 17:21 13.35709 -59.98480 12787 ft 271 kts 131°
2026-04-23 17:21 13.34526 -59.96991 12419 ft 274 kts 131°
2026-04-23 17:21 13.32091 -59.93957 11645 ft 274 kts 131°
2026-04-23 17:22 13.30878 -59.92444 11228 ft 274 kts 131°
2026-04-23 17:22 13.28462 -59.89434 10435 ft 273 kts 131°
2026-04-23 17:23 13.26051 -59.86432 9633 ft 272 kts 131°
2026-04-23 17:23 13.24852 -59.84939 9202 ft 271 kts 131°
2026-04-23 17:23 13.22515 -59.82030 8359 ft 260 kts 131°
2026-04-23 17:24 13.21375 -59.80611 7944 ft 255 kts 131°
2026-04-23 17:24 13.20258 -59.79214 7526 ft 251 kts 131°
2026-04-23 17:24 13.18065 -59.76490 6728 ft 244 kts 130°
2026-04-23 17:25 13.15923 -59.73823 5913 ft 240 kts 130°
2026-04-23 17:25 13.14882 -59.72526 5500 ft 238 kts 130°
2026-04-23 17:26 13.12789 -59.69928 4704 ft 234 kts 130°
2026-04-23 17:26 13.10742 -59.67383 3967 ft 228 kts 129°
2026-04-23 17:27 13.08741 -59.64894 3248 ft 224 kts 129°
2026-04-23 17:27 13.07805 -59.63625 2863 ft 221 kts 122°
2026-04-23 17:27 13.06998 -59.62290 2501 ft 219 kts 120°
2026-04-23 17:27 13.06301 -59.60908 2130 ft 219 kts 111°
2026-04-23 17:28 13.05877 -59.59445 1844 ft 214 kts 99°
2026-04-23 17:28 13.05795 -59.57961 1597 ft 193 kts 88°
2026-04-23 17:28 13.05850 -59.56717 1562 ft 163 kts 86°
2026-04-23 17:28 13.05968 -59.55637 1372 ft 146 kts 82°
2026-04-23 17:29 13.06135 -59.54700 1202 ft 123 kts 79°
2026-04-23 17:29 13.06332 -59.53891 1049 ft 111 kts 76°
2026-04-23 17:29 13.06711 -59.52299 610 ft 114 kts 77°
2026-04-23 17:30 13.06905 -59.51510 399 ft 113 kts 77°
2026-04-23 17:30 13.07258 -59.50042 176 ft 88 kts 77°
2026-04-23 17:30 13.07345 -59.49691 172 ft 43 kts 76°
2026-04-23 17:31 13.07408 -59.49430 172 ft 34 kts 76°
2026-04-23 17:31 13.07459 -59.49223 172 ft 26 kts 76°
2026-04-23 17:31 13.07497 -59.49066 172 ft 19 kts 77°
2026-04-23 17:31 13.07553 -59.48979 172 ft 11 kts 21°
2026-04-23 17:32 13.07622 -59.48990 173 ft 9 kts 345°
2026-04-23 17:32 13.07674 -59.48995 174 ft 4 kts 50°
2026-04-23 17:32 13.07690 -59.48959 174 ft 10 kts 73°
2026-04-23 17:32 13.07717 -59.48947 174 ft 8 kts 350°
2026-04-23 17:33 13.07734 -59.48952 174 ft 0 kts 342°